RH
40 22 24 28 28 45 47 34 28 23 19 14 15 18 20 20 34 41 80 81 65 64 75 77 68 53 50 58 57 53 56 61 62 61 60 69 64 63 72 82 85 67 54 52 58 57 53 59 66
29 21 24 40 34 40 33 32 26 22 18 18 18 18 24 38 60 71 80 79 67 62 66 72 67 62 49 60 60 58 57 60 62 63 70 67 64 68 80 89 89 60 50 53 50 44 32 40 60
21 24 27 38 55 38 34 25 22 19 19 19 18 16 20 34 61 72 65 72 70 70 69 73 65 67 58 56 62 60 60 62 67 70 65 62 60 61 67 78 79 52 48 46 39 33 17 22 55
28 30 39 44 42 38 28 23 22 23 18 18 16 23 18 47 62 66 68 68 66 71 66 73 70 68 68 55 63 65 60 57 60 57 54 51 48 49 52 67 63 43 32 33 29 20 24 30 41
29 42 39 49 47 40 28 24 22 24 22 21 20 24 19 63 71 67 78 78 73 79 69 69 71 73 72 62 74 77 65 59 56 53 50 48 51 53 55 60 54 31 22 20 16 22 40 52 57
38 44 50 50 35 26 26 23 20 22 22 22 22 25 21 75 81 84 85 85 80 76 76 76 77 74 78 70 73 80 75 64 65 59 58 63 64 68 56 60 46 21 15 13 17 35 48 61 65
35 47 49 44 37 31 26 23 23 24 25 24 20 26 28 73 73 90 95 86 81 78 79 90 97 90 85 82 72 75 75 69 65 63 61 62 68 66 56 51 31 15 12 14 28 41 53 65 67
43 46 45 50 34 33 25 23 21 23 25 21 19 27 30 43 80 84 91 91 81 80 78 85 99 99 98 98 77 75 76 72 68 66 67 68 71 73 62 49 26 14 12 15 34 46 52 66 66
39 52 57 39 41 29 24 28 24 22 27 26 22 22 22 57 91 94 98 100 100 99 92 100 100 100 99 98 94 82 80 77 74 73 72 73 72 75 66 56 34 14 13 15 35 47 61 68 64
44 65 53 38 31 32 29 31 32 36 37 36 35 29 62 88 99 97 97 95 98 99 99 100 98 98 96 96 92 94 95 90 86 82 81 78 74 73 64 58 29 15 14 15 34 47 67 68 67
52 56 42 39 37 36 40 43 39 45 47 39 38 33 84 99 98 95 93 92 94 97 98 99 97 93 92 88 96 98 99 100 99 88 85 82 81 81 69 64 36 16 14 16 35 61 66 66 65
65 50 47 46 42 42 47 46 47 45 42 36 39 34 86 98 91 91 86 90 91 95 97 97 94 95 92 97 96 100 100 99 100 95 90 87 84 84 75 62 41 20 15 15 31 54 64 65 66
60 52 45 46 47 46 44 48 47 49 41 39 39 38 61 91 94 93 90 91 94 95 98 97 95 96 94 97 100 99 100 100 100 98 94 88 83 83 76 64 48 30 18 15 28 51 66 67 69
62 61 64 58 56 54 58 56 56 48 38 42 43 42 39 59 84 86 91 95 95 90 95 97 96 97 97 98 97 100 100 100 99 97 94 91 85 81 77 68 54 34 18 17 25 43 62 70 71
68 81 73 66 60 58 50 65 62 45 44 47 44 41 38 43 50 71 74 92 91 88 92 97 99 98 99 100 98 100 98 100 99 97 93 91 89 84 78 72 64 40 23 19 34 56 64 72 76
80 73 84 61 60 60 68 80 52 42 48 49 47 44 41 39 41 44 54 72 85 85 90 96 99 100 99 99 97 98 100 99 99 97 94 93 91 86 78 75 66 49 29 23 37 57 75 78 81
86 89 79 68 52 54 61 64 46 41 48 51 50 48 46 44 40 35 40 52 72 83 87 96 98 100 100 100 97 96 100 100 100 99 95 92 92 88 77 78 70 56 36 30 42 57 73 91 92
86 87 75 71 59 58 62 63 51 46 47 50 48 45 44 44 40 35 34 40 55 79 85 92 97 98 100 100 98 98 100 100 100 99 96 94 94 90 84 79 75 65 48 32 46 55 83 90 95
72 79 83 74 57 60 62 60 54 50 51 57 52 48 45 44 39 36 33 31 45 65 89 95 97 96 98 100 100 100 99 100 100 100 100 99 98 92 89 79 82 69 57 33 47 69 81 100 99
81 89 83 67 60 66 63 65 52 49 48 46 47 47 45 43 40 36 36 33 42 57 84 95 96 96 95 96 97 98 98 100 99 100 100 100 100 95 90 81 84 73 65 42 55 74 99 100 98
86 87 76 77 62 63 69 79 61 46 42 42 43 43 42 42 42 39 34 34 39 58 75 91 94 94 95 93 96 97 99 100 100 100 100 99 99 96 91 88 84 82 66 52 53 71 79 95 97
89 63 68 72 78 91 68 83 48 44 45 47 46 49 49 60 60 58 58 56 49 42 66 82 94 94 90 91 95 95 92 93 96 97 98 100 100 98 94 92 88 86 73 60 47 65 72 80 92
78 59 67 73 85 83 77 91 64 48 54 50 46 61 64 66 67 71 71 67 63 56 44 57 83 95 91 89 88 92 90 86 85 91 98 100 100 100 100 96 92 87 77 64 54 65 74 73 82
54 66 77 77 84 97 83 86 66 54 48 51 64 64 62 65 68 69 69 69 74 74 70 51 65 90 92 88 88 88 89 83 84 92 96 96 100 100 100 99 94 89 81 70 61 58 70 72 75
68 84 95 98 98 92 69 87 72 46 47 59 61 57 60 65 67 72 72 71 71 80 93 83 55 77 93 86 86 87 87 84 83 87 88 92 97 100 100 99 97 92 84 76 67 65 69 70 72
71 80 95 97 95 85 60 96 73 66 58 59 60 57 52 59 67 70 72 76 75 75 87 99 94 62 83 91 84 86 84 85 84 84 85 88 90 95 99 99 97 94 87 79 74 68 66 69 70
78 95 69 94 88 99 72 75 66 60 60 55 55 50 49 48 56 67 70 70 73 76 83 92 99 97 68 92 87 83 86 87 87 85 83 87 90 96 98 100 99 94 88 82 77 74 70 70 70
94 80 98 99 97 96 99 78 76 76 70 60 59 57 53 50 48 50 61 68 66 73 79 91 90 94 90 74 92 88 85 86 86 89 89 88 93 96 98 100 98 98 92 86 81 77 75 73 72
98 100 99 99 98 97 96 98 83 81 77 71 57 49 54 56 57 54 56 61 66 71 76 91 96 95 86 86 86 92 89 89 91 92 94 94 96 97 99 98 98 98 95 90 85 93 86 78 76
100 100 99 97 96 97 96 93 77 82 75 74 54 48 50 46 53 53 51 54 68 72 76 86 97 100 95 91 92 92 94 93 95 96 99 96 99 95 98 96 95 100 98 99 94 89 88 83 82
Wind_Speed
11 10 5 4 3 4 4 7 2 4 6 1 2 5 11 7 4 5 6 19 16 33 36 34 33 35 36 37 36 37 40 41 41 39 38 37 35 33 31 28 26 25 24 23 22 20 19 20 21
14 10 4 2 3 1 5 4 8 7 6 9 8 6 4 8 5 5 5 13 25 32 37 35 34 34 35 37 37 37 39 41 41 40 38 36 33 31 28 26 26 25 24 23 22 21 21 22 23
11 4 4 3 3 6 5 5 6 3 6 5 4 6 5 4 1 4 8 19 28 31 37 36 35 34 35 36 37 38 39 40 41 40 37 34 31 29 28 26 26 25 24 23 22 21 21 23 24
4 4 4 3 10 8 7 4 2 10 4 4 1 9 6 2 2 4 12 23 29 30 35 35 34 34 35 35 36 38 39 39 39 37 34 32 30 28 27 26 26 23 24 23 22 21 23 24 25
4 3 1 3 8 6 6 4 3 7 6 2 4 6 5 4 7 3 12 21 26 30 33 35 34 33 34 35 34 34 37 39 38 37 34 31 29 28 26 26 25 23 23 23 23 24 25 25 25
3 3 1 5 9 5 2 5 4 5 6 6 5 8 6 8 9 3 13 21 21 28 30 32 34 33 34 36 34 34 35 36 37 34 32 31 29 27 26 26 24 23 23 23 25 26 26 26 26
5 4 5 4 10 12 4 5 4 5 5 4 4 5 5 5 3 6 12 18 21 24 27 29 29 32 34 35 36 36 36 37 36 34 33 30 29 28 27 25 24 24 24 24 26 26 27 27 26
5 4 4 6 12 16 6 3 3 3 15 3 2 5 7 5 8 12 14 16 20 22 26 30 29 30 32 33 37 37 37 36 36 34 32 30 28 27 26 25 23 25 26 25 26 26 27 27 26
4 1 5 8 7 15 5 3 4 2 8 4 4 5 9 7 11 14 15 13 18 21 27 28 30 31 33 35 35 36 36 36 35 34 33 30 29 27 26 23 22 26 26 26 26 26 28 27 26
4 4 9 7 6 13 9 8 8 4 13 18 10 6 6 11 17 14 12 12 11 14 18 25 30 34 33 33 34 36 36 36 36 36 34 31 30 29 27 24 23 25 25 25 27 27 29 29 29
6 10 15 11 8 11 12 15 8 6 16 16 14 6 5 7 11 14 17 16 19 20 23 25 27 34 33 34 36 37 34 35 36 37 36 33 31 29 28 27 25 27 27 27 28 30 31 30 29
9 11 12 7 9 13 20 11 18 11 21 16 10 9 6 9 12 14 18 21 20 23 25 30 31 33 34 34 37 35 38 35 38 40 37 36 34 32 30 28 26 29 30 29 31 31 31 29 28
13 19 18 14 17 19 19 26 24 25 21 14 14 15 10 12 14 22 27 20 22 24 28 32 36 36 36 35 34 36 36 38 38 40 39 38 36 34 32 30 28 28 29 30 31 31 31 30 28
8 11 15 18 20 16 19 24 8 40 15 15 13 17 16 15 17 21 21 25 28 30 31 36 39 38 38 38 37 36 39 40 42 43 42 39 37 35 34 33 31 30 31 31 32 33 33 31 30
15 20 19 23 20 21 15 23 22 36 12 17 17 16 16 13 19 20 31 34 39 39 39 38 43 41 40 40 38 36 37 41 43 44 44 42 38 36 35 34 32 32 32 32 32 32 33 32 32
15 15 17 3 11 7 10 20 15 16 8 14 11 11 13 15 17 28 32 34 39 39 38 43 42 43 42 41 40 38 38 41 41 44 46 44 41 39 36 37 34 33 34 36 36 36 35 34 33
9 20 22 16 15 16 13 22 13 6 7 9 9 8 9 9 10 22 31 35 36 41 38 40 43 44 46 42 39 39 36 39 39 43 47 48 45 42 38 39 37 36 36 37 39 36 38 37 34
15 16 17 18 4 9 20 28 25 21 17 12 15 17 14 14 17 18 28 33 35 38 42 42 43 44 45 40 34 31 32 35 37 43 48 51 50 47 43 39 39 38 38 39 40 37 33 37 37
14 15 16 6 9 18 20 33 20 17 14 12 14 16 16 17 18 18 24 33 33 32 34 38 40 43 40 36 37 36 38 41 41 43 49 53 52 50 47 41 41 42 42 44 43 39 38 32 37
23 23 24 20 12 9 20 38 20 13 20 17 17 17 19 15 14 10 12 25 28 33 38 38 42 43 46 43 44 40 44 42 42 37 39 47 50 52 51 49 48 48 46 46 46 42 32 24 42
24 27 19 20 13 18 18 34 25 14 19 19 15 19 16 16 13 7 4 7 20 25 32 37 43 45 47 47 39 32 28 25 27 33 37 48 52 54 54 53 51 49 50 51 50 46 40 28 38
23 20 22 20 11 12 14 18 22 12 12 8 7 9 5 7 6 7 6 6 12 13 22 31 36 40 45 45 38 40 37 31 36 45 48 46 54 56 56 53 53 51 49 49 55 49 45 36 38
27 14 18 19 19 16 19 8 4 3 4 3 7 8 6 6 5 7 8 7 15 17 16 24 31 37 41 44 44 42 40 40 36 34 36 39 44 51 53 51 50 52 52 52 54 51 46 44 40
29 23 16 18 17 15 29 17 30 18 18 4 5 7 6 6 6 6 6 11 10 13 20 20 27 34 40 42 46 46 45 41 35 35 37 42 42 46 50 52 54 53 52 51 53 54 50 46 40
19 20 12 11 11 14 14 13 22 6 5 6 8 6 7 8 8 9 11 12 15 15 16 21 19 28 38 43 44 48 47 46 44 39 40 37 38 41 48 55 55 54 55 52 51 50 47 47 44
21 23 13 14 12 12 14 10 10 10 12 11 7 4 3 7 7 7 7 7 9 16 19 16 20 21 31 42 46 46 48 45 45 44 40 42 43 45 44 50 50 50 50 49 49 48 48 45 44
24 15 27 26 21 2 7 1 6 8 7 7 7 9 10 8 8 8 7 7 11 17 21 20 19 23 27 37 43 45 44 44 43 42 41 39 37 35 38 44 42 43 46 49 49 45 47 45 46
3 0 8 6 12 12 9 8 6 4 4 5 9 8 9 11 14 13 10 10 12 16 22 24 23 22 23 30 34 37 39 42 41 36 37 37 36 34 37 40 41 41 43 45 44 41 42 42 42
2 2 3 1 1 2 1 2 4 8 3 4 4 5 7 7 8 10 13 14 17 17 18 20 24 24 23 22 26 30 33 36 35 37 37 37 35 36 37 41 38 39 42 46 50 42 41 41 39
2 3 2 2 1 3 2 4 1 5 1 2 5 5 6 9 9 10 11 11 15 15 16 19 22 24 23 19 24 28 30 33 33 35 35 41 38 42 43 46 49 43 41 39 44 43 39 40 40
Wind_Direction
157 147 141 51 50 59 262 254 276 280 324 251 334 270 252 218 222 228 333 172 164 164 165 167 170 168 167 163 158 157 159 162 160 159 159 158 157 156 156 150 148 149 145 145 143 142 141 136 132
145 141 81 85 101 308 267 236 223 217 226 320 296 289 300 253 189 275 135 176 167 165 169 170 172 172 171 167 162 158 159 162 162 161 161 159 158 159 156 150 149 148 147 145 143 142 141 140 139
139 127 100 113 142 216 225 221 235 225 260 242 289 239 276 256 212 221 206 174 166 167 173 174 175 177 175 172 168 164 161 160 161 161 161 161 163 165 160 155 152 151 148 144 142 143 142 143 145
144 24 40 120 233 253 215 218 302 323 330 186 278 315 311 268 273 290 186 167 171 171 177 176 178 181 180 175 172 170 167 164 163 164 165 166 167 166 162 157 156 156 152 147 147 147 142 144 149
68 60 110 236 253 254 250 268 257 280 282 203 314 280 272 16 327 194 176 178 176 175 178 180 182 184 182 178 175 174 173 168 167 167 168 167 167 167 165 162 159 157 153 153 151 146 145 145 147
57 100 98 241 252 251 300 213 225 237 256 319 338 310 273 351 345 192 183 184 181 176 179 181 184 186 185 181 180 179 175 170 168 167 166 167 168 170 167 164 162 158 156 159 153 149 150 147 144
137 111 223 251 265 288 227 207 226 258 278 296 284 280 267 332 279 213 193 189 182 183 182 181 185 185 186 184 185 183 180 175 171 170 171 172 172 171 170 169 166 158 159 161 154 152 154 151 147
117 126 233 229 262 275 216 170 227 283 287 250 168 285 301 287 204 187 187 195 183 187 187 186 186 188 186 184 188 186 185 180 175 174 175 174 171 169 170 170 165 159 162 164 158 156 157 155 151
132 176 233 239 200 259 240 263 175 225 267 277 218 281 285 300 177 171 176 201 189 188 190 185 188 190 190 189 189 188 188 184 180 178 179 174 171 172 173 171 165 162 165 167 160 156 158 156 153
173 188 232 209 231 267 270 231 295 321 289 285 283 259 267 179 170 173 187 206 219 195 191 189 191 194 191 192 193 191 189 188 184 182 180 179 177 178 176 172 168 165 168 169 162 159 158 158 153
215 237 253 257 250 261 266 270 270 258 273 269 285 299 195 186 189 191 200 204 208 198 198 198 198 196 191 195 193 192 186 185 186 186 184 182 179 178 176 174 170 167 172 170 163 163 165 163 161
250 248 251 268 253 264 271 281 274 254 263 266 262 263 161 186 204 207 213 213 206 200 203 202 200 199 199 194 193 190 188 186 188 191 188 184 182 182 179 178 174 172 174 171 169 168 168 166 164
254 261 266 264 265 264 275 268 277 274 257 266 255 257 209 195 204 213 215 210 203 203 205 205 203 202 200 198 194 192 190 191 191 194 192 191 187 185 183 182 178 176 176 176 171 170 170 168 166
264 277 280 276 270 264 265 271 292 271 279 261 241 245 244 210 207 214 214 206 202 210 207 208 206 203 201 201 200 195 193 193 197 198 196 196 194 190 187 185 182 178 180 179 176 174 173 170 169
262 268 275 261 266 261 274 267 241 260 279 268 254 246 247 217 219 212 211 207 207 209 207 204 205 204 201 201 201 200 198 194 198 200 200 199 199 196 193 190 185 181 179 179 176 173 174 171 171
270 270 274 233 236 273 178 263 265 271 246 257 261 243 241 244 220 228 225 216 213 210 203 200 201 201 201 201 202 199 199 198 197 200 203 202 201 200 198 194 190 184 181 180 176 175 173 174 172
213 264 253 271 246 261 223 274 276 250 218 247 257 245 238 243 229 227 230 224 216 211 206 201 198 198 201 201 200 201 200 199 198 200 204 204 202 202 203 199 193 188 184 182 180 178 179 173 171
238 247 253 264 287 249 265 264 267 272 269 260 267 269 262 256 247 230 231 230 223 214 207 202 199 204 199 198 198 199 202 202 199 203 205 206 204 202 202 202 199 192 186 184 184 182 180 177 169
248 265 266 322 266 274 265 271 265 268 261 246 240 259 261 252 256 245 237 235 227 215 206 202 199 202 198 192 188 190 195 198 201 201 205 207 205 205 201 203 202 198 193 188 187 182 177 164 170
234 245 253 266 253 252 285 281 272 251 263 250 250 248 253 254 256 244 230 233 221 212 205 201 203 200 198 201 201 198 201 201 203 202 204 205 204 205 202 206 204 201 195 191 188 180 161 165 173
227 236 246 247 257 245 269 280 280 263 236 252 242 247 254 248 265 299 18 279 237 216 209 204 203 201 199 202 204 203 200 198 197 203 201 207 207 207 205 206 206 200 197 194 190 186 176 165 179
246 221 235 241 246 252 193 275 277 265 240 218 234 224 275 35 1 346 7 343 335 282 235 215 209 204 204 202 197 197 198 195 201 202 202 199 205 208 206 205 205 201 195 192 194 192 187 177 181
248 224 236 227 232 245 232 253 61 88 261 212 225 79 42 25 9 344 347 337 326 324 301 241 220 209 207 204 203 202 205 211 210 206 205 202 199 203 204 203 201 201 197 198 193 191 189 190 183
247 249 253 237 223 227 236 217 273 245 252 163 52 42 36 21 9 348 341 355 356 343 338 309 231 214 211 209 207 206 208 210 208 203 202 204 198 197 199 200 203 202 198 196 195 195 191 190 190
229 231 238 230 216 227 192 203 240 342 24 115 105 43 9 355 11 358 353 351 349 352 341 328 298 225 210 213 212 213 213 212 210 206 207 203 202 196 197 197 199 199 200 198 194 192 193 193 191
220 222 234 234 227 235 164 204 222 100 76 76 93 99 343 360 356 339 334 329 332 334 337 332 314 283 221 212 216 215 216 215 216 212 208 207 207 207 203 198 199 198 196 196 194 192 193 194 197
224 234 227 245 255 242 196 325 55 71 75 58 27 20 10 355 347 332 328 329 324 330 329 331 322 301 259 221 218 218 216 217 217 216 214 211 209 205 203 199 198 194 194 193 192 192 192 192 194
273 299 213 239 227 244 205 208 173 131 95 55 35 20 355 341 342 337 333 321 322 323 324 324 328 322 287 241 224 222 219 219 218 217 215 210 203 199 197 195 196 194 192 190 190 192 194 192 194
39 40 345 236 37 313 34 252 156 138 150 88 66 17 342 332 318 315 315 313 309 317 325 326 327 321 319 269 231 226 224 220 216 214 212 204 194 191 190 185 189 194 193 190 190 192 191 193 190
182 124 136 269 292 109 133 294 200 131 108 349 2 358 347 332 319 317 305 304 308 311 323 329 323 319 308 296 250 225 220 216 210 209 204 194 187 189 189 189 192 193 195 196 191 189 189 187 185